Location: Bratislava
(0.0000°N, 17.1167°E)
Time: 04:42:39
(UTC+01:00)

DELTA 2 R/B (1) - Pass Details

Date: 24 January 2021
Orbit: 790 x 802 km, 39.6° (Epoch: 06 March)

Event Time Altitude Azimuth Distance (km) Brightness Sun altitude
Rises 19:28:14 0° 313° (NW) 3,270 7.1 -19.9°
Reaches altitude 10° 19:30:42 10° 313° (NW) 2,341 6.3 -20.5°
Maximum altitude 19:36:14 88° 42° (NE) 791 3.4 -21.8°
Enters shadow 19:39:20 27° 131° (SE) 1,471 4.7 -22.5°
